Back to catalog

YAOGAN-30 N

AliveMilitaryVLEO
NORAD 44449·PAYLOAD·🇨🇳 China

Launched Jul 26, 2019 from Xichang Satellite Launch Center

Loading…

Next Passes (next 24 hours)

TLE

FreshSource: Space-Track

Epoch: Sep 14, 2026, 03:00 UTC

1 44449U 19045A   26257.12557294  .00001821  00000-0  13457-3 0  9996
2 44449  34.9933 147.8489 0004380 323.5426  36.4983 15.03047820390004

Track YAOGAN-30 N in real time with AllMySat

Download on the App Store